Date,TemperatureHighF,TemperatureAvgF,TemperatureLowF,DewpointHighF,DewpointAvgF,DewpointLowF,HumidityHigh,HumidityAvg,HumidityLow,PressureMaxIn,PressureMinIn,WindSpeedMaxMPH,WindSpeedAvgMPH,GustSpeedMaxMPH,PrecipitationSumIn
2013-1-1,37,32,21,29,21,11,76,64,52,29.91,29.72,29,6,29,0.00
2013-1-2,31,21,13,17,11,4,78,65,55,30.09,29.89,22,4,22,0.00
2013-1-3,24,16,6,14,3,-4,70,57,34,30.12,29.99,18,4,18,0.00
2013-1-4,38,30,21,26,22,13,80,71,59,29.99,29.81,23,4,23,0.00
2013-1-5,42,33,26,27,23,19,75,66,48,30.24,29.85,22,3,22,0.00
2013-1-6,43,34,27,32,28,20,95,79,64,30.21,29.92,12,2,14,0.01
2013-1-7,41,33,27,31,26,19,92,77,53,30.38,29.95,16,2,16,0.00
2013-1-8,47,37,27,33,30,24,95,77,56,30.36,30.26,25,3,25,0.00
2013-1-9,45,38,29,39,33,27,93,81,66,30.37,29.99,28,3,28,0.00
2013-1-10,46,41,34,35,28,25,74,60,47,30.51,30.06,31,6,31,0.00
2013-1-11,39,35,29,37,30,24,96,81,71,30.51,30.18,9,1,9,0.18
2013-1-12,44,41,38,44,41,37,98,98,96,30.21,30.10,8,1,8,0.05
2013-1-13,52,47,43,51,47,42,99,99,98,30.14,29.99,11,2,11,0.01
2013-1-14,60,52,41,55,45,32,99,81,49,30.22,29.86,20,4,20,0.00
2013-1-15,41,38,34,33,30,27,87,73,64,30.29,30.18,10,1,10,0.01
2013-1-16,34,33,31,33,31,27,97,92,74,30.23,29.79,10,1,10,0.00
2013-1-17,42,35,30,34,30,20,97,81,62,30.07,29.83,18,3,18,0.38
2013-1-18,31,23,19,22,8,1,68,51,37,30.44,30.01,22,4,22,0.00
2013-1-19,47,37,20,35,27,8,81,67,53,30.39,29.89,26,5,26,0.05
2013-1-20,54,42,29,36,30,13,82,62,40,29.91,29.54,29,7,29,0.00
2013-1-21,29,25,20,22,14,9,93,64,49,30.08,29.77,19,3,23,0.00
2013-1-22,23,20,12,22,9,0,93,66,40,30.07,29.74,22,5,22,0.00
2013-1-23,16,11,6,5,-2,-6,73,55,44,30.13,30.05,25,6,25,0.00
2013-1-24,20,11,2,-1,-4,-6,69,51,38,30.23,30.06,26,7,26,0.00
2013-1-25,23,16,7,14,0,-6,85,48,35,30.31,30.04,12,4,20,0.00
2013-1-26,24,17,11,14,7,-2,90,66,39,30.23,29.98,23,5,23,0.00
2013-1-27,30,21,12,8,5,3,70,52,36,30.45,30.23,20,5,20,0.00
2013-1-28,32,26,19,28,16,4,96,68,43,30.44,29.99,11,2,11,0.00
2013-1-29,34,31,27,33,30,26,97,96,95,30.18,29.98,7,1,7,0.12
2013-1-30,60,49,34,58,49,33,100,98,94,30.14,29.46,25,5,28,0.14
2013-1-31,61,49,31,60,40,17,98,74,45,29.58,28.97,36,8,36,0.65
2013-2-1,32,28,22,20,13,8,72,54,41,30.08,29.58,25,7,25,0.00
2013-2-2,31,24,16,17,11,6,68,58,44,30.24,30.04,17,4,17,0.00
2013-2-3,29,25,20,24,21,17,92,85,69,30.05,29.71,11,2,12,0.00
2013-2-4,30,24,20,22,14,10,92,68,45,29.95,29.71,26,5,26,0.00
2013-2-5,26,24,21,23,18,13,92,79,68,30.01,29.91,12,1,12,0.00
2013-2-6,40,30,25,28,21,8,94,71,45,30.28,29.90,23,4,23,0.04
2013-2-7,31,25,17,16,9,7,71,52,38,30.51,30.28,12,2,12,0.00
2013-2-8,33,30,20,32,27,15,97,90,71,30.46,29.47,33,5,33,0.00
2013-2-9,24,20,14,22,17,10,95,90,81,30.18,29.46,29,8,33,0.00
2013-2-10,38,23,10,29,15,6,84,74,39,30.38,30.18,15,3,15,0.06
2013-2-11,46,36,22,46,34,14,98,90,70,30.35,29.59,15,2,15,0.34
2013-2-12,44,39,33,43,32,26,98,75,58,29.87,29.60,30,6,30,0.00
2013-2-13,43,35,27,29,26,22,87,72,54,29.86,29.66,13,2,13,0.00
2013-2-14,44,35,30,29,26,23,93,70,46,29.99,29.69,15,2,15,0.00
2013-2-15,50,39,31,39,34,27,97,84,61,30.00,29.90,19,2,19,0.00
2013-2-16,36,34,31,33,31,22,97,89,67,29.93,29.65,18,2,18,0.02
2013-2-17,31,22,17,24,14,4,92,72,44,29.68,29.37,42,10,42,0.00
2013-2-18,30,22,14,7,4,3,60,47,31,30.17,29.68,31,8,31,0.00
2013-2-19,48,37,21,44,28,6,98,72,48,30.17,29.57,17,2,17,0.36
2013-2-20,41,32,26,40,22,12,97,68,47,29.78,29.53,29,8,29,0.01
2013-2-21,34,28,24,18,16,14,71,62,50,30.18,29.76,26,7,26,0.00
2013-2-22,39,31,24,27,23,18,82,72,58,30.36,30.18,15,2,15,0.00
2013-2-23,39,34,31,34,30,26,97,85,75,30.31,29.87,13,2,13,0.21
2013-2-24,37,35,32,37,34,31,98,97,96,29.87,29.64,14,3,16,0.73
2013-2-25,40,34,30,34,32,29,97,90,74,30.23,29.86,10,1,10,0.15
2013-2-26,45,37,32,35,32,29,95,80,58,30.32,30.11,14,2,14,0.00
2013-2-27,42,40,36,42,39,33,98,96,86,30.12,29.55,26,5,26,1.23
2013-2-28,45,39,35,41,37,34,98,93,80,29.62,29.50,10,1,10,0.00
2013-3-1,43,38,34,36,32,29,96,79,64,29.66,29.50,16,3,16,0.00
2013-3-2,41,37,34,31,29,28,79,73,64,29.66,29.60,10,3,14,0.00
2013-3-3,42,36,32,32,29,26,94,78,64,29.62,29.53,14,4,14,0.00
2013-3-4,41,34,28,30,26,22,90,71,59,29.72,29.57,25,7,25,0.00
2013-3-5,47,37,30,34,30,24,93,75,59,30.04,29.72,19,3,20,0.00
2013-3-6,41,37,34,37,35,32,96,91,77,30.05,29.98,28,6,28,0.06
2013-3-7,36,33,31,33,31,30,96,95,88,29.99,29.93,25,6,25,0.03
2013-3-8,35,32,30,34,31,28,97,94,79,30.11,29.89,23,5,23,0.01
2013-3-9,44,36,30,34,29,24,95,77,61,30.32,30.11,15,3,15,0.43
2013-3-10,46,36,28,35,32,27,96,85,64,30.39,30.30,9,2,9,0.02
2013-3-11,51,42,35,44,38,33,97,88,72,30.32,30.14,13,3,13,0.00
2013-3-12,55,50,42,54,49,42,99,96,88,30.15,29.71,25,4,26,0.67
2013-3-13,53,44,34,52,34,23,99,70,43,29.77,29.68,21,5,21,0.01
2013-3-14,35,31,23,26,18,9,76,60,46,29.83,29.69,26,6,28,0.00
2013-3-15,42,31,21,30,17,11,82,59,33,29.87,29.64,18,5,18,0.00
2013-3-16,41,34,28,29,20,12,82,57,32,29.85,29.68,14,2,14,0.00
2013-3-17,38,32,24,21,14,8,73,50,31,30.29,29.84,26,4,26,0.00
2013-3-18,39,29,19,26,13,3,83,51,34,30.44,30.20,11,2,12,0.00
2013-3-19,38,33,29,37,32,26,98,96,83,30.20,29.55,20,5,21,0.48
2013-3-20,38,32,27,29,23,20,97,71,51,29.80,29.67,27,5,27,0.10
2013-3-21,36,32,28,29,24,20,92,74,61,29.81,29.58,11,2,11,0.03
2013-3-22,40,33,27,28,22,19,91,64,47,29.74,29.59,23,6,23,0.00
2013-3-23,43,36,29,26,23,21,80,61,43,29.79,29.64,29,8,31,0.00
2013-3-24,49,38,30,30,26,22,78,61,44,29.82,29.70,20,4,20,0.00
2013-3-25,46,38,32,36,32,28,91,80,62,29.75,29.47,22,3,22,0.00
2013-3-26,48,40,35,33,29,23,88,66,44,29.77,29.49,17,4,17,0.00
2013-3-27,53,42,31,32,27,22,71,55,37,29.85,29.73,21,4,21,0.00
2013-3-28,48,42,37,37,34,32,93,75,56,30.00,29.84,15,2,15,0.00
2013-3-29,59,47,37,38,34,31,85,62,38,30.03,29.94,17,4,19,0.00
2013-3-30,57,48,38,34,28,21,78,49,26,30.08,29.98,18,3,18,0.00
2013-3-31,60,48,36,44,31,23,93,54,34,30.10,29.70,19,3,20,0.04
2013-4-1,63,48,35,50,40,16,97,78,44,29.78,29.49,32,6,32,0.31
2013-4-2,41,34,28,22,18,14,68,51,35,29.95,29.78,27,6,30,0.00
2013-4-3,45,36,30,21,18,16,62,48,33,30.16,29.94,29,9,29,0.00
2013-4-4,57,41,28,31,22,18,79,50,27,30.29,30.06,15,4,16,0.00
2013-4-5,60,46,37,36,31,25,82,59,29,30.06,29.60,26,5,26,0.00
2013-4-6,47,38,31,28,18,10,80,46,24,30.32,29.86,23,5,31,0.00
2013-4-7,54,43,30,43,33,23,88,70,45,30.32,30.00,22,4,24,0.00
2013-4-8,67,54,44,46,44,41,97,72,40,30.08,29.95,14,3,15,0.00
2013-4-9,73,58,47,56,47,42,97,70,42,30.07,29.83,24,4,24,0.00
2013-4-10,67,53,45,55,48,44,97,83,60,29.99,29.83,14,2,14,0.20
2013-4-11,55,48,42,48,44,36,98,87,67,30.11,29.79,13,2,13,0.02
2013-4-12,42,40,38,39,37,33,97,90,74,30.12,29.74,25,5,25,0.30
2013-4-13,54,44,36,42,38,35,97,80,55,29.92,29.70,15,3,16,0.03
2013-4-14,53,46,39,41,34,29,89,67,46,30.20,29.91,25,4,25,0.00
2013-4-15,59,46,37,40,35,28,91,67,45,30.38,30.19,14,2,14,0.00
2013-4-16,62,51,38,52,45,37,97,81,63,30.39,30.08,19,4,22,0.00
2013-4-17,68,58,44,54,44,33,91,62,28,30.30,30.06,19,4,19,0.00
2013-4-18,63,52,40,48,40,34,94,69,41,30.39,30.13,17,3,17,0.00
2013-4-19,74,62,52,65,60,48,99,92,73,30.14,29.66,25,5,25,0.00
2013-4-20,64,54,45,64,45,30,98,73,48,30.20,29.59,30,5,30,0.36
2013-4-21,55,44,33,34,27,23,84,55,33,30.66,30.20,20,4,20,0.00
2013-4-22,53,43,34,39,34,31,90,71,44,30.71,30.55,22,4,22,0.00
2013-4-23,43,41,38,42,39,33,97,93,79,30.56,30.07,18,3,18,0.05
2013-4-24,74,54,42,55,47,41,98,80,44,30.07,29.80,19,4,19,0.01
2013-4-25,64,55,46,53,40,27,95,60,29,30.24,29.83,22,4,22,0.04
2013-4-26,67,53,42,48,38,27,87,59,40,30.40,30.24,14,3,14,0.00
2013-4-27,66,50,37,47,40,36,97,71,43,30.40,30.28,14,2,14,0.00
2013-4-28,69,54,40,46,39,32,92,61,36,30.32,30.22,17,2,17,0.00
2013-4-29,67,56,46,52,42,32,94,64,30,30.26,30.19,17,2,17,0.00
2013-4-30,72,56,43,46,36,28,92,52,25,30.34,30.23,13,1,13,0.00
2013-5-1,70,56,39,47,39,32,85,55,36,30.44,30.34,15,2,15,0.00
2013-5-2,79,58,43,52,45,40,95,66,32,30.45,30.30,15,2,15,0.00
2013-5-3,61,51,42,48,43,39,92,76,61,30.48,30.35,17,2,17,0.00
2013-5-4,62,50,38,48,40,30,94,70,33,30.35,30.27,16,2,16,0.00
2013-5-5,64,50,37,48,42,35,97,76,50,30.30,30.21,11,2,11,0.00
2013-5-6,73,55,42,55,48,38,95,78,48,30.27,30.13,13,2,13,0.00
2013-5-7,77,61,42,64,54,41,97,78,56,30.16,30.08,17,2,17,0.00
2013-5-8,74,63,54,68,60,53,99,90,66,30.17,30.01,20,2,20,0.19
2013-5-9,69,62,58,63,60,58,99,94,77,30.01,29.84,8,1,8,0.24
2013-5-10,80,67,55,63,59,55,99,77,48,29.93,29.86,12,2,12,0.00
2013-5-11,72,63,58,64,60,56,98,92,75,29.90,29.68,19,2,19,0.09
2013-5-12,74,61,47,64,54,36,99,80,46,29.80,29.55,22,2,22,0.04
2013-5-13,59,50,39,39,35,31,85,57,40,30.01,29.80,19,4,19,0.00
2013-5-14,59,50,38,38,34,32,81,58,39,30.03,29.96,19,3,19,0.00
2013-5-15,66,52,37,54,43,32,94,73,43,30.04,29.67,17,2,17,0.02
2013-5-16,82,68,52,54,49,43,97,57,28,29.77,29.62,24,4,24,0.00
2013-5-17,71,60,49,50,46,43,84,61,40,30.20,29.77,18,2,18,0.00
2013-5-18,72,60,45,52,48,42,95,68,37,30.28,30.19,15,2,15,0.00
2013-5-19,72,58,47,58,52,45,98,82,56,30.32,30.20,13,2,13,0.08
2013-5-20,82,69,56,69,64,56,99,85,60,30.20,29.89,15,2,15,0.04
2013-5-21,87,68,52,75,63,52,100,88,61,29.96,29.80,16,2,16,0.07
2013-5-22,74,61,52,69,59,51,99,93,83,30.00,29.84,16,2,16,0.01
2013-5-23,77,68,60,71,66,58,100,95,79,29.90,29.79,19,2,19,0.18
2013-5-24,69,63,50,69,62,49,100,97,92,29.79,29.63,15,2,15,0.53
2013-5-25,52,48,41,51,47,40,99,97,96,29.77,29.68,20,5,20,0.40
2013-5-26,60,49,40,45,42,38,96,76,54,30.10,29.72,28,7,28,0.01
2013-5-27,72,57,42,49,43,39,94,62,32,30.15,30.06,22,4,22,0.00
2013-5-28,76,61,46,58,50,43,94,69,41,30.21,30.14,10,1,10,0.00
2013-5-29,76,65,58,70,63,57,99,92,78,30.17,29.96,18,2,18,1.08
2013-5-30,89,76,64,76,69,63,99,81,56,30.07,29.98,17,2,17,0.03
2013-5-31,92,80,68,76,70,64,97,73,48,30.06,29.92,15,2,15,0.00
2013-6-1,90,78,66,75,69,64,94,75,53,29.95,29.84,21,2,21,0.00
2013-6-2,87,75,66,75,69,64,97,82,60,29.87,29.73,23,2,23,0.00
2013-6-3,76,68,61,72,66,59,99,95,83,29.82,29.74,17,1,17,1.24
2013-6-4,71,61,49,59,50,43,94,68,47,30.07,29.79,19,3,19,0.00
2013-6-5,74,62,49,57,50,46,93,67,46,30.17,30.06,14,1,14,0.00
2013-6-6,74,64,52,61,56,50,95,74,54,30.17,30.07,10,1,10,0.01
2013-6-7,61,57,55,61,57,54,99,98,95,30.07,29.75,11,1,11,3.18
2013-6-8,78,64,54,69,60,54,100,90,71,29.98,29.57,16,3,16,0.67
2013-6-9,79,68,56,63,59,55,98,76,51,30.14,29.98,16,2,16,0.00
2013-6-10,71,63,57,64,60,55,99,91,74,30.17,29.97,11,1,11,0.73
2013-6-11,71,61,58,67,60,57,100,98,87,29.97,29.53,11,2,11,1.40
2013-6-12,70,64,58,60,57,54,99,80,62,29.79,29.54,26,5,26,0.00
2013-6-13,64,57,51,60,55,50,98,93,81,29.80,29.61,14,1,14,0.54
2013-6-14,72,60,52,64,56,52,99,87,65,29.75,29.57,18,3,18,1.32
2013-6-15,78,67,56,57,53,46,88,63,36,29.92,29.75,16,3,16,0.00
2013-6-16,76,66,54,66,58,49,95,76,57,29.92,29.71,16,1,16,0.00
2013-6-17,84,71,61,71,64,59,97,79,53,29.88,29.75,24,2,24,0.06
2013-6-18,82,65,58,70,62,58,99,91,63,29.91,29.82,16,1,16,0.27
2013-6-19,75,64,55,61,57,52,99,79,47,30.12,29.86,13,2,13,0.02
2013-6-20,78,66,52,60,56,51,98,73,46,30.23,30.12,11,1,11,0.00
2013-6-21,84,71,57,70,63,55,95,77,62,30.24,30.17,14,2,14,0.00
2013-6-22,84,72,61,69,62,56,84,72,53,30.21,30.10,16,2,16,0.00
2013-6-23,90,76,64,77,69,60,92,78,59,30.15,29.99,16,2,16,0.00
2013-6-24,93,80,69,78,73,67,98,80,56,30.01,29.85,20,3,20,0.01
2013-6-25,91,79,67,77,71,66,97,79,56,29.90,29.71,15,2,15,0.00
2013-6-26,88,77,69,75,72,68,96,85,62,29.81,29.69,15,2,15,0.01
2013-6-27,73,68,65,70,67,65,99,96,91,29.82,29.71,7,1,7,0.01
2013-6-28,82,72,66,77,71,65,100,95,78,29.72,29.48,18,2,18,0.50
2013-6-29,83,75,70,75,71,69,100,90,69,29.70,29.48,16,2,16,0.11
2013-6-30,83,76,72,77,72,69,97,90,77,29.91,29.70,6,1,13,0.13
2013-7-1,83,75,72,79,74,71,99,96,83,30.06,29.90,13,1,13,0.06
2013-7-2,84,77,73,78,74,72,99,93,77,30.15,30.05,13,1,13,0.00
2013-7-3,88,78,72,79,74,70,97,88,70,30.19,30.11,21,2,21,0.00
2013-7-4,91,82,73,81,76,72,99,85,67,30.18,30.07,14,2,14,0.00
2013-7-5,93,83,75,81,76,73,94,80,61,30.14,30.01,12,2,12,0.00
2013-7-6,91,83,75,79,76,73,94,79,61,30.05,29.94,17,2,17,0.00
2013-7-7,93,80,72,82,75,70,98,86,63,29.99,29.87,17,1,17,0.01
2013-7-8,90,79,69,78,74,68,99,85,62,30.02,29.87,13,2,13,0.09
2013-7-9,82,72,67,74,69,66,99,93,67,30.07,29.99,6,0,6,0.00
2013-7-10,86,76,69,79,74,68,100,93,78,30.03,29.77,14,1,14,0.00
2013-7-11,82,76,72,77,74,70,99,94,85,29.88,29.75,11,0,11,0.61
2013-7-12,76,71,67,70,66,62,97,86,74,30.15,29.88,14,2,14,0.00
2013-7-13,78,72,66,76,70,64,99,95,90,30.27,30.15,8,1,8,0.04
2013-7-14,90,80,73,79,75,72,100,85,64,30.27,30.16,11,1,11,0.00
2013-7-15,92,82,74,79,75,72,98,81,60,30.17,30.06,10,1,10,0.00
2013-7-16,94,83,74,78,73,68,95,73,52,30.12,30.06,14,1,14,0.00
2013-7-17,94,82,72,80,75,70,98,80,52,30.14,29.98,12,1,12,0.00
2013-7-18,96,84,75,81,76,72,91,77,52,29.99,29.90,11,2,11,0.00
2013-7-19,96,85,76,82,78,74,96,80,59,29.91,29.70,21,2,21,0.00
2013-7-20,94,82,73,82,78,72,95,86,63,29.78,29.61,14,2,14,0.33
2013-7-21,88,77,70,75,70,66,96,80,60,29.95,29.77,8,1,8,0.00
2013-7-22,87,76,68,75,71,66,99,86,61,29.97,29.83,9,1,9,0.00
2013-7-23,87,75,72,81,74,70,100,95,76,29.83,29.50,15,1,15,1.95
2013-7-24,84,77,70,76,71,61,99,84,63,29.90,29.55,12,2,12,0.01
2013-7-25,70,62,59,61,58,53,98,87,73,30.05,29.90,17,2,17,0.34
2013-7-26,71,64,60,68,63,59,99,97,90,30.01,29.91,15,3,15,0.48
2013-7-27,85,72,62,72,67,61,99,85,59,30.04,29.97,11,1,11,0.00
2013-7-28,85,74,67,75,70,66,99,90,64,29.98,29.92,8,1,8,0.00
2013-7-29,85,75,67,78,72,66,99,90,75,30.00,29.93,15,1,15,0.00
2013-7-30,82,72,61,68,63,59,93,75,53,30.07,30.00,14,2,14,0.00
2013-7-31,83,72,60,69,63,58,94,76,52,30.11,30.01,6,1,10,0.00
2013-8-1,82,71,63,71,65,62,98,82,59,30.03,29.85,11,1,14,0.00
2013-8-2,82,72,65,71,66,63,99,83,57,29.85,29.77,16,2,16,0.16
2013-8-3,79,71,65,70,66,62,96,84,71,29.85,29.76,13,1,13,0.00
2013-8-4,80,68,58,64,60,55,92,78,52,29.87,29.75,24,2,24,0.01
2013-8-5,76,64,55,58,54,49,94,70,40,30.02,29.87,16,3,16,0.00
2013-8-6,80,66,51,61,55,48,95,69,46,30.13,30.02,9,1,9,0.00
2013-8-7,80,68,58,67,60,55,98,76,44,30.17,30.10,12,1,12,0.00
2013-8-8,82,72,64,75,69,60,96,89,78,30.10,29.99,12,1,12,0.04
2013-8-9,76,74,72,75,73,70,100,98,95,30.01,29.74,17,1,17,1.88
2013-8-10,82,74,62,74,65,54,100,77,50,29.99,29.76,18,3,18,0.00
2013-8-11,79,68,54,65,58,52,95,73,52,30.07,29.98,13,2,13,0.00
2013-8-12,82,71,62,68,64,59,97,79,52,30.01,29.90,10,1,10,0.00
2013-8-13,77,68,63,71,66,62,98,92,73,29.91,29.66,8,0,8,0.01
2013-8-14,73,66,59,65,58,54,97,76,58,29.95,29.65,20,4,25,0.00
2013-8-15,76,65,53,61,56,51,96,75,48,30.10,29.95,14,2,14,0.00
2013-8-16,80,67,54,65,58,52,97,76,47,30.17,30.09,13,1,13,0.00
2013-8-17,83,70,58,67,61,55,94,76,50,30.25,30.17,11,1,11,0.00
2013-8-18,80,68,60,68,62,58,97,83,54,30.25,30.07,7,0,7,0.01
2013-8-19,81,70,59,68,63,58,95,81,56,30.07,29.94,12,2,12,0.00
2013-8-20,85,74,64,70,66,62,94,76,48,30.07,29.95,12,2,12,0.00
2013-8-21,88,75,63,72,67,62,96,78,53,30.12,30.00,10,1,10,0.00
2013-8-22,85,74,66,76,70,64,96,88,70,30.02,29.81,13,1,13,0.00
2013-8-23,80,74,70,70,66,60,97,77,52,29.98,29.79,13,2,13,0.00
2013-8-24,78,69,56,58,54,49,86,59,39,30.32,30.22,13,1,13,0.00
2013-8-25,83,68,55,63,57,53,96,71,42,30.34,30.17,10,1,10,0.00
2013-8-26,79,71,64,71,65,59,91,82,66,30.18,29.86,16,1,16,0.00
2013-8-27,83,73,66,75,70,64,99,91,71,29.86,29.80,9,0,9,0.41
2013-8-28,87,74,63,74,68,62,99,85,55,29.92,29.82,10,1,10,0.00
2013-8-29,68,64,61,66,63,59,99,96,93,30.03,29.91,12,1,12,0.00
2013-8-30,82,69,61,73,66,59,97,89,70,30.01,29.81,11,1,11,0.00
2013-8-31,82,74,68,76,72,67,99,94,84,29.82,29.77,12,1,12,0.00
2013-9-1,80,74,70,78,73,69,100,97,91,29.86,29.78,11,1,11,0.28
2013-9-2,78,74,69,77,73,69,100,97,90,29.83,29.68,12,1,12,0.36
2013-9-3,80,73,63,74,70,61,99,93,76,29.80,29.66,12,1,12,0.00
2013-9-4,80,68,58,65,61,56,97,79,54,29.90,29.78,14,2,14,0.00
2013-9-5,72,64,53,66,59,50,96,86,61,30.11,29.84,12,1,12,0.03
2013-9-6,68,57,46,52,47,42,93,71,47,30.23,30.09,11,1,11,0.00
2013-9-7,78,63,50,61,54,46,91,74,49,30.09,29.85,13,2,13,0.00
2013-9-8,76,66,54,66,57,43,94,74,46,30.07,29.73,24,3,24,0.00
2013-9-9,70,58,44,54,48,41,91,71,50,30.22,30.06,11,1,11,0.00
2013-9-10,76,67,55,72,64,51,96,91,85,30.15,30.02,13,1,13,0.01
2013-9-11,95,80,70,82,75,68,99,86,58,30.06,29.92,11,1,11,0.00
2013-9-12,87,77,70,78,72,69,99,88,68,29.95,29.65,18,2,18,0.24
2013-9-13,80,70,60,71,66,58,99,89,68,29.73,29.54,11,2,12,0.10
2013-9-14,68,60,53,59,55,51,94,83,69,30.04,29.73,15,2,15,0.00
2013-9-15,72,59,48,58,53,47,98,81,56,30.15,30.04,10,1,10,0.00
2013-9-16,68,58,49,60,53,41,94,85,69,30.22,30.00,14,1,14,0.01
2013-9-17,64,52,41,47,42,37,91,72,48,30.40,30.22,12,2,12,0.00
2013-9-18,74,57,43,54,48,42,94,74,45,30.32,30.14,10,1,10,0.00
2013-9-19,80,63,49,61,54,46,95,74,47,30.14,30.02,7,1,8,0.00
2013-9-20,82,64,50,63,56,48,97,77,47,30.07,29.98,11,1,11,0.00
2013-9-21,77,66,56,68,63,56,99,91,70,30.01,29.71,11,2,19,0.00
2013-9-22,71,64,50,69,59,47,98,85,60,29.80,29.59,11,3,20,0.40
2013-9-23,65,54,45,50,45,42,90,75,56,29.99,29.80,17,3,17,0.00
2013-9-24,68,54,41,50,45,39,95,75,47,29.98,29.80,16,2,16,0.00
2013-9-25,70,57,45,57,50,43,95,78,60,29.96,29.85,14,2,14,0.00
2013-9-26,67,58,52,55,51,49,93,80,60,30.10,29.96,11,1,11,0.00
2013-9-27,67,58,49,58,53,47,93,84,68,30.24,30.09,10,1,10,0.00
2013-9-28,75,60,49,60,54,47,97,82,54,30.31,30.23,10,1,10,0.00
2013-9-29,71,57,45,59,51,44,98,83,51,30.25,30.09,8,1,8,0.00
2013-9-30,69,57,49,56,51,46,98,83,53,30.10,29.94,9,1,9,0.00
2013-10-1,78,62,48,60,54,47,96,78,47,29.94,29.83,12,1,13,0.00
2013-10-2,80,67,55,65,60,53,97,80,60,29.94,29.82,18,2,18,0.00
2013-10-3,79,64,53,59,54,49,95,71,36,30.07,29.94,13,1,13,0.00
2013-10-4,65,57,53,60,54,49,97,89,71,30.07,30.01,8,0,8,1.25
2013-10-5,71,62,58,65,60,57,99,92,78,30.10,30.03,4,0,6,0.02
2013-10-6,60,59,57,59,58,56,99,97,93,30.18,30.08,8,1,8,0.32
2013-10-7,76,67,57,73,66,57,100,96,87,30.10,29.81,16,2,22,0.10
2013-10-8,67,58,49,58,49,42,91,74,51,30.34,29.88,15,2,15,0.00
2013-10-9,64,52,44,52,46,42,95,80,59,30.44,30.33,12,1,12,0.00
2013-10-10,66,54,46,59,52,45,98,92,74,30.34,30.14,9,1,9,0.00
2013-10-11,70,58,52,61,54,47,98,86,65,30.14,30.07,10,1,10,0.00
2013-10-12,66,56,51,60,54,49,98,91,79,30.35,30.11,20,2,20,0.00
2013-10-13,62,53,43,53,49,41,97,86,68,30.42,30.33,11,1,11,0.00
2013-10-14,65,50,38,51,44,36,98,81,48,30.39,30.25,6,0,6,0.00
2013-10-15,70,57,47,58,51,46,97,82,56,30.26,30.15,8,0,8,0.00
2013-10-16,62,55,48,59,53,46,99,95,87,30.16,29.90,8,0,8,0.00
2013-10-17,72,61,52,65,59,51,99,92,75,29.91,29.71,14,1,14,0.01
2013-10-18,67,61,48,63,53,43,99,78,54,29.89,29.60,21,3,21,0.01
2013-10-19,66,54,42,51,46,40,93,76,49,29.96,29.73,11,1,11,0.00
2013-10-20,62,54,43,53,43,35,95,70,41,30.01,29.68,19,3,19,0.00
2013-10-21,68,52,40,47,42,35,89,70,45,30.11,29.99,12,2,12,0.00
2013-10-22,70,55,45,57,48,40,98,80,51,29.99,29.67,18,2,18,0.00
2013-10-23,50,45,38,40,38,34,93,76,59,29.78,29.58,9,1,9,0.00
2013-10-24,53,45,36,38,34,29,91,66,42,29.89,29.64,21,3,21,0.00
2013-10-25,49,41,34,36,31,28,85,68,51,30.15,29.88,22,3,22,0.00
2013-10-26,56,44,33,40,34,28,93,70,43,30.15,29.86,23,3,23,0.00
2013-10-27,55,47,39,44,37,31,94,69,49,30.06,29.81,20,3,20,0.02
2013-10-28,52,37,33,38,32,30,93,83,57,30.14,30.06,12,1,12,0.00
2013-11-5,45,41,39,36,34,31,83,77,58,30.57,30.50,4,0,4,0.00
2013-11-6,61,51,40,52,45,36,96,81,57,30.51,30.04,15,2,15,0.00
2013-11-7,66,54,41,62,52,36,98,92,78,30.04,29.66,17,4,20,0.24
2013-11-8,49,40,31,38,30,24,87,68,47,30.09,29.80,27,5,27,0.00
2013-11-9,44,37,29,33,28,25,86,69,50,30.20,30.02,19,2,19,0.00
2013-11-10,55,46,41,46,39,33,94,78,60,30.02,29.72,28,3,28,0.05
2013-11-11,52,46,38,39,32,29,70,60,44,30.09,29.85,29,5,29,0.00
2013-11-12,50,37,28,40,29,18,93,73,61,30.17,29.88,24,5,24,0.07
2013-11-13,37,29,23,20,17,14,79,62,44,30.27,30.17,18,4,18,0.00
2013-11-14,51,40,27,28,24,18,69,54,41,30.17,30.04,17,3,17,0.00
2013-11-15,62,48,38,39,28,19,83,48,30,30.19,30.11,18,2,18,0.00
2013-11-16,60,48,40,42,36,31,92,67,36,30.30,30.18,12,1,12,0.00
2013-11-17,60,51,40,60,50,39,99,93,79,30.29,29.82,11,1,11,0.09
2013-11-18,66,59,49,63,51,35,100,76,48,29.82,29.52,24,4,24,0.38
2013-11-19,49,41,32,35,26,20,63,56,47,30.25,29.64,28,7,28,0.00
2013-11-20,42,33,27,21,17,15,69,52,35,30.61,30.25,16,2,16,0.00
2013-11-21,48,37,26,34,23,15,77,58,41,30.62,30.38,10,1,10,0.00
2013-11-22,50,46,41,50,44,34,97,92,77,30.38,29.81,11,1,11,0.13
2013-11-23,49,41,29,48,30,20,97,66,39,29.89,29.78,26,7,26,0.00
2013-11-24,29,24,21,21,8,0,73,50,30,30.20,29.79,38,11,38,0.00
2013-11-25,33,25,16,21,8,0,69,49,28,30.36,30.19,20,4,25,0.00
2013-11-26,42,38,30,40,28,20,97,68,49,30.31,29.99,20,2,20,0.17
2013-11-27,62,52,37,61,51,34,99,98,89,30.00,29.19,32,6,32,2.56
2013-11-28,37,32,23,34,21,12,89,65,43,30.43,29.47,30,9,30,0.00
2013-11-29,35,28,22,19,15,7,74,59,46,30.72,30.43,14,2,14,0.00
2013-11-30,35,26,16,25,17,9,80,68,51,30.77,30.42,10,1,10,0.00
2013-12-1,44,37,31,43,35,26,97,93,80,30.42,29.99,7,1,7,0.20
2013-12-2,40,38,36,40,37,36,98,98,97,29.99,29.89,6,1,9,0.02
2013-12-3,49,40,34,44,36,32,99,89,64,29.94,29.83,8,2,12,0.00
2013-12-4,46,37,30,35,32,29,95,83,63,30.18,29.94,10,1,10,0.00
2013-12-5,55,46,36,54,45,32,99,94,87,30.18,29.92,16,2,16,0.00
2013-12-6,57,50,36,57,48,35,99,94,84,30.10,29.85,15,2,15,0.26
2013-12-7,39,34,29,35,30,24,97,85,68,30.44,30.04,16,3,16,0.10
2013-12-8,31,28,22,24,20,17,84,71,60,30.58,30.44,9,1,9,0.00
2013-12-9,39,34,27,38,32,21,98,94,71,30.47,29.87,12,1,12,0.18
2013-12-10,34,31,24,34,30,21,98,97,89,30.00,29.77,19,2,19,0.00
2013-12-11,31,26,21,24,21,18,90,82,73,30.22,30.00,18,3,18,0.00
2013-12-12,26,20,13,20,11,5,88,68,47,30.27,30.07,13,3,18,0.01
2013-12-13,30,23,15,18,14,8,81,68,57,30.35,30.00,23,4,23,0.00
2013-12-14,28,17,12,27,9,0,95,73,52,30.57,30.09,15,2,15,0.00
2013-12-15,37,30,24,37,28,22,98,93,83,30.10,29.38,19,5,19,0.05
2013-12-16,28,24,13,23,14,8,89,68,49,30.20,29.74,22,4,22,0.00
2013-12-17,20,15,7,18,12,4,93,87,80,30.25,29.91,14,2,14,0.00
2013-12-18,34,26,17,24,21,15,93,81,61,30.09,29.85,19,4,19,0.01
2013-12-19,45,35,26,30,26,21,83,71,55,30.12,29.96,22,3,22,0.10
2013-12-20,54,43,34,41,35,29,88,75,59,30.11,29.91,14,2,14,0.18
2013-12-21,60,50,43,52,47,38,96,88,73,29.97,29.86,13,3,13,0.00
2013-12-22,65,56,40,62,54,38,96,92,76,29.98,29.75,24,4,24,0.00
2013-12-23,40,37,34,40,37,34,99,98,96,30.07,29.92,11,2,11,0.46
2013-12-24,40,33,27,40,27,18,98,78,57,30.19,30.02,18,3,18,0.00
2013-12-25,27,20,16,18,8,5,71,60,48,30.53,30.18,23,4,23,0.00
2013-12-26,36,28,18,34,24,9,94,86,68,30.49,30.08,16,2,16,0.00
2013-12-27,35,29,25,25,22,21,89,77,60,30.28,30.19,14,4,14,0.00
2013-12-28,42,38,34,29,28,27,78,69,60,30.08,30.02,8,1,8,0.00
2013-12-29,44,39,34,42,35,28,97,86,75,30.03,29.34,22,2,22,0.91
2013-12-30,40,33,20,38,26,12,97,78,49,30.13,29.50,20,4,20,0.01
2013-12-31,26,20,15,17,11,4,79,67,52,30.19,30.01,14,2,14,0.00
2014-1-1,29,22,16,16,12,8,76,63,50,30.37,30.19,18,2,18,0.00
2014-1-2,23,16,3,18,13,0,91,88,68,30.34,29.76,19,3,19,0.00